Weather History for Pompano Beach, FL

Change the Weather History Date:

Saturday, February 23, 2013

  Actual Average Record
Temperature  
Mean Temperature 77 °F -  
Max Temperature 81 °F 79 °F 88 °F (2008)
Min Temperature 73 °F 61 °F 34 °F (1978)
Cooling Degree Days 12    
Growing Degree Days 27 (Base 50)    
Moisture  
Dew Point 71 °F    
Average Humidity 85    
Maximum Humidity 94    
Minimum Humidity 69    
Precipitation  
Precipitation 0.00 in - - ()
Sea Level Pressure  
Sea Level Pressure 30.00 in    
Wind  
Wind Speed 14 mph (SSE)    
Max Wind Speed 22 mph    
Max Gust Speed 26 mph    
Visibility 10 miles    
Events      
Averages and records for this station are not official NWS values.
T = Trace of Precipitation, MM = Missing Value Source: NWS Daily Summary

Daily Weather History Graph

Daily Weather History Graph

Search for Another Location

Airport:

Trip Planner

Search our weather history database for the weather conditions in past years. The results will help you decide how hot, cold, wet, or windy it might be!

Date:

Astronomy

Feb. 23, 2013 Rise Set
Actual Time 6:49 AM EST 6:18 PM EST
Civil Twilight 6:25 AM EST 6:41 PM EST
Nautical Twilight 5:59 AM EST 7:08 PM EST
Astronomical Twilight 5:32 AM EST 7:35 PM EST
Moon 4:32 PM EST (2/23) 5:03 AM EST (2/23)
Length of Visible Light 12h 15m
Length of Day
11h 29m
Waxing Gibbous, 95% of the Moon is Illuminated
Feb 23
Waxing Gibbous
Feb 25
Full
Mar 4
Last Quarter
Mar 11
New
Mar 19
First Quarter

Hourly Weather History & Observations

Time (EST) Temp. Heat Index Dew Point Humidity Pressure Visibility Wind Dir Wind Speed Gust Speed Precip Events Conditions
12:53 AM 73.9 °F - 72.0 °F 93% 30.04 in 10.0 mi ESE 13.8 mph 23.0 mph N/A   Mostly Cloudy
1:05 AM 73.4 °F - 71.6 °F 94% 30.04 in 10.0 mi SE 16.1 mph 21.9 mph N/A   Mostly Cloudy
1:53 AM 73.9 °F - 71.1 °F 91% 30.03 in 10.0 mi SE 19.6 mph - N/A   Mostly Cloudy
2:26 AM 73.4 °F - 71.6 °F 94% 30.01 in 10.0 mi SE 12.7 mph 23.0 mph N/A   Scattered Clouds
2:53 AM 73.9 °F - 71.1 °F 91% 30.01 in 10.0 mi SSE 13.8 mph 21.9 mph N/A   Mostly Cloudy
3:46 AM 73.4 °F - 69.8 °F 88% 30.00 in 10.0 mi SSE 11.5 mph 20.7 mph N/A   Scattered Clouds
4:53 AM 73.9 °F - 70.0 °F 87% 30.00 in 10.0 mi SSE 13.8 mph - N/A   Partly Cloudy
5:53 AM 73.9 °F - 70.0 °F 87% 30.01 in 10.0 mi SSE 16.1 mph - N/A   Scattered Clouds
6:17 AM 73.4 °F - 69.8 °F 88% 30.01 in 10.0 mi South 15.0 mph - N/A   Mostly Cloudy
6:53 AM 73.9 °F - 69.1 °F 85% 30.01 in 10.0 mi SSE 10.4 mph 19.6 mph N/A   Mostly Cloudy
7:06 AM 73.4 °F - 68.0 °F 83% 30.01 in 10.0 mi South 11.5 mph - N/A   Partly Cloudy
7:53 AM 75.0 °F - 68.0 °F 79% 30.02 in 10.0 mi South 16.1 mph 21.9 mph N/A   Partly Cloudy
8:53 AM 78.1 °F - 69.1 °F 74% 30.04 in 10.0 mi South 15.0 mph 21.9 mph N/A   Scattered Clouds
9:53 AM 79.0 °F - 70.0 °F 74% 30.05 in 10.0 mi South 15.0 mph 20.7 mph N/A   Scattered Clouds
10:53 AM 79.0 °F - 71.1 °F 77% 30.04 in 10.0 mi SSE 16.1 mph - N/A   Scattered Clouds
11:53 AM 81.0 °F 84.4 °F 70.0 °F 69% 30.02 in 10.0 mi South 15.0 mph 24.2 mph N/A   Scattered Clouds
12:53 PM 80.1 °F 83.6 °F 71.1 °F 74% 30.00 in 10.0 mi SSE 21.9 mph 26.5 mph N/A   Partly Cloudy
1:53 PM 81.0 °F 85.2 °F 72.0 °F 74% 29.97 in 10.0 mi SSE 19.6 mph 25.3 mph N/A   Partly Cloudy
2:53 PM 79.0 °F - 72.0 °F 79% 29.96 in 10.0 mi SSE 12.7 mph 21.9 mph N/A   Scattered Clouds
3:53 PM 80.1 °F 83.8 °F 72.0 °F 76% 29.94 in 10.0 mi SSE 16.1 mph - N/A   Scattered Clouds
4:53 PM 78.1 °F - 72.0 °F 81% 29.94 in 10.0 mi SSE 16.1 mph 24.2 mph N/A   Clear
5:53 PM 77.0 °F - 73.0 °F 88% 29.94 in 10.0 mi SSE 16.1 mph 19.6 mph N/A   Clear
6:53 PM 75.9 °F - 73.9 °F 94% 29.95 in 10.0 mi SSE 12.7 mph - N/A   Clear
7:53 PM 75.9 °F - 73.0 °F 91% 29.97 in 10.0 mi South 6.9 mph - N/A   Mostly Cloudy
8:53 PM 75.9 °F - 72.0 °F 87% 29.98 in 10.0 mi South 6.9 mph - N/A   Mostly Cloudy
9:53 PM 75.9 °F - 72.0 °F 87% 29.99 in 10.0 mi SSW 5.8 mph - N/A   Overcast
10:53 PM 75.0 °F - 73.0 °F 94% 29.99 in 10.0 mi SSW 4.6 mph - N/A   Mostly Cloudy
11:53 PM 73.9 °F - 72.0 °F 93% 29.99 in 10.0 mi Calm Calm - N/A   Scattered Clouds